Weather History for KPBI - January, 2015

Change the Weather History Date:

Sunday, January 4, 2015

  Actual Average Record
Temperature  
Mean Temperature 79 °F 66 °F  
Max Temperature 84 °F 75 °F 89 °F (1942)
Min Temperature 73 °F 57 °F 32 °F (1918)
Degree Days  
Heating Degree Days 0 3  
Month to date heating degree days 0 12  
Since 1 July heating degree days 42 83  
Cooling Degree Days 14 4  
Month to date cooling degree days 51 16  
Year to date cooling degree days 51 16  
Growing Degree Days 30 (Base 50)    
Moisture  
Dew Point 70 °F    
Average Humidity 76    
Maximum Humidity 87    
Minimum Humidity 65    
Precipitation  
Precipitation 0.00 in 0.11 in 2.17 in (1966)
Month to date precipitation 0.23 0.45  
Year to date precipitation 0.23 0.45  
Snow  
Snow 0.00 in - - ()
Month to date snowfall 0.0  
Since 1 July snowfall 0.0  
Snow Depth 0.00 in    
Sea Level Pressure  
Sea Level Pressure 30.22 in    
Wind  
Wind Speed 11 mph (SSE)    
Max Wind Speed 25 mph    
Max Gust Speed 30 mph    
Visibility 10 miles    
Events      
T = Trace of Precipitation, MM = Missing Value Source: NWS Daily Summary

Daily Weather History Graph

Daily Weather History Graph

Search for Another Location

Airport or City:

Trip Planner

Search our weather history database for the weather conditions in past years. The results will help you decide how hot, cold, wet, or windy it might be!

Date:

Astronomy

Jan. 04, 2015 Rise Set
Actual Time 7:09 AM EST 5:41 PM EST
Civil Twilight 6:44 AM EST 6:06 PM EST
Nautical Twilight 6:15 AM EST 6:35 PM EST
Astronomical Twilight 5:47 AM EST 7:03 PM EST
Moon 5:33 PM EST (1/4) 6:26 AM EST (1/4)
Length of Visible Light 11h 21m
Length of Day
10h 31m
Full, 100% of the Moon is Illuminated
Jan 4
Full
Jan 4
Full
Jan 13
Last Quarter
Jan 20
New
Jan 26
First Quarter

Hourly Weather History & Observations

Time (EST) Temp. Heat Index Dew Point Humidity Pressure Visibility Wind Dir Wind Speed Gust Speed Precip Events Conditions
12:53 AM 78.1 °F - 72.0 °F 81% 30.21 in 10.0 mi SE 16.1 mph - N/A   Mostly Cloudy
1:53 AM 77.0 °F - 70.0 °F 79% 30.21 in 10.0 mi SE 13.8 mph - N/A   Scattered Clouds
2:53 AM 77.0 °F - 70.0 °F 79% 30.20 in 10.0 mi SE 11.5 mph - N/A   Scattered Clouds
3:53 AM 77.0 °F - 70.0 °F 79% 30.19 in 10.0 mi SE 8.1 mph - N/A   Scattered Clouds
4:53 AM 77.0 °F - 68.0 °F 74% 30.19 in 10.0 mi SE 12.7 mph - N/A   Scattered Clouds
5:53 AM 77.0 °F - 68.0 °F 74% 30.20 in 10.0 mi SSE 13.8 mph - N/A   Scattered Clouds
6:53 AM 77.0 °F - 69.1 °F 76% 30.22 in 10.0 mi SSE 10.4 mph - N/A   Scattered Clouds
7:53 AM 78.1 °F - 70.0 °F 76% 30.23 in 10.0 mi SE 11.5 mph - N/A   Scattered Clouds
8:53 AM 80.6 °F 83.9 °F 69.8 °F 70% 30.24 in 10.0 mi SSE 12.7 mph - N/A   Scattered Clouds
9:53 AM 81.0 °F 84.1 °F 69.1 °F 67% 30.24 in 10.0 mi SSE 21.9 mph 28.8 mph N/A   Scattered Clouds
10:53 AM 82.0 °F 85.5 °F 69.1 °F 65% 30.23 in 10.0 mi SSE 16.1 mph - N/A   Scattered Clouds
11:53 AM 82.9 °F 86.5 °F 69.1 °F 63% 30.22 in 10.0 mi South 17.3 mph - N/A   Scattered Clouds
12:53 PM 82.9 °F 86.5 °F 69.1 °F 63% 30.21 in 10.0 mi SSE 15.0 mph - N/A   Mostly Cloudy
1:53 PM 82.9 °F 87.0 °F 70.0 °F 65% 30.19 in 10.0 mi SSE 15.0 mph - N/A   Mostly Cloudy
2:53 PM 82.9 °F 87.0 °F 70.0 °F 65% 30.19 in 10.0 mi SSE 16.1 mph 20.7 mph N/A   Mostly Cloudy
3:53 PM 82.0 °F 85.9 °F 70.0 °F 67% 30.20 in 10.0 mi South 11.5 mph - N/A   Mostly Cloudy
4:53 PM 81.0 °F 84.9 °F 71.1 °F 72% 30.21 in 10.0 mi SSE 10.4 mph - N/A   Mostly Cloudy
5:53 PM 79.0 °F - 71.1 °F 77% 30.22 in 10.0 mi SSE 9.2 mph - N/A   Scattered Clouds
6:53 PM 78.1 °F - 71.1 °F 79% 30.24 in 10.0 mi SSE 5.8 mph - N/A   Partly Cloudy
7:53 PM 77.0 °F - 72.0 °F 84% 30.26 in 10.0 mi South 5.8 mph - N/A   Partly Cloudy
8:53 PM 75.9 °F - 72.0 °F 87% 30.26 in 10.0 mi SSE 6.9 mph - N/A   Partly Cloudy
9:53 PM 75.0 °F - 71.1 °F 87% 30.27 in 10.0 mi Calm Calm - N/A   Partly Cloudy
10:53 PM 75.0 °F - 72.0 °F 90% 30.26 in 10.0 mi Calm Calm - N/A   Scattered Clouds
11:53 PM 73.9 °F - 72.0 °F 93% 30.27 in 10.0 mi West 5.8 mph - N/A   Mostly Cloudy